Wind_Speed
99 102 102 101 100 97 95 93 91 89 88 88 88 89 91 93 96 99 101 103 104 104 102 99 97 95 92 88 84 80 78 75 72 68 65 62 59 56 54 52 50 49 47
100 100 98 95 92 89 87 86 85 84 83 83 83 83 84 86 89 93 98 101 105 106 106 104 102 100 98 94 90 85 82 79 76 72 69 66 63 60 57 54 52 50 49
97 94 90 87 85 84 83 82 81 80 78 77 77 77 78 79 82 85 90 96 101 106 108 108 107 105 103 100 96 91 86 83 80 77 73 70 67 64 61 57 54 52 50
90 87 84 82 82 81 80 78 75 73 71 70 69 69 70 72 74 78 83 89 95 101 106 109 110 109 107 105 101 97 92 87 83 80 77 73 71 68 65 61 57 55 52
84 81 80 80 80 77 75 73 72 70 69 67 66 65 65 66 67 70 75 82 89 96 102 108 111 112 111 109 107 102 97 92 87 84 81 77 74 71 68 65 61 58 55
80 78 79 78 76 74 74 74 75 74 73 71 68 66 64 64 64 66 69 74 82 90 98 104 109 112 114 114 111 107 102 96 91 87 84 81 77 74 71 69 65 61 58
77 77 76 75 73 75 77 78 76 74 73 73 72 70 67 65 66 66 65 67 74 83 92 100 106 112 115 116 115 112 107 101 96 91 87 84 81 77 74 72 68 65 61
76 75 74 73 75 78 76 71 68 65 63 65 68 70 70 69 71 68 66 66 68 75 84 95 103 110 115 117 118 116 112 106 100 95 91 87 84 80 77 74 72 68 65
75 74 74 74 77 77 71 65 61 58 55 53 57 62 67 72 72 68 68 67 66 68 75 86 98 107 114 118 119 118 115 111 105 99 94 90 87 83 79 75 73 72 68
73 73 73 75 77 73 66 61 58 54 49 43 42 48 57 66 72 70 69 68 66 64 67 76 90 102 111 117 120 119 118 114 109 103 98 93 89 86 82 77 74 73 71
72 72 73 75 74 68 61 57 53 48 43 36 30 32 41 52 64 69 68 68 66 64 63 68 79 94 106 114 119 120 119 117 112 107 102 96 92 88 84 79 74 72 71
70 71 72 73 70 63 57 52 48 44 39 32 23 19 25 37 51 62 65 65 65 64 62 62 70 84 99 109 116 119 119 117 114 110 105 99 94 90 87 83 77 73 70
68 69 71 71 67 60 52 47 42 39 35 30 22 13 12 23 37 50 58 61 62 62 61 60 64 75 90 102 111 116 118 117 115 112 107 102 97 92 88 85 80 76 71
68 68 70 70 65 57 48 42 36 33 30 26 21 13 6 13 25 38 48 54 57 59 59 59 61 68 81 95 104 111 116 117 116 113 109 104 99 94 89 86 82 77 73
67 68 70 70 65 55 46 39 32 28 24 21 17 13 7 6 16 27 38 46 52 55 56 57 58 63 74 87 97 105 112 115 115 114 111 106 102 96 91 87 82 78 75
66 67 69 69 66 56 45 37 30 25 21 17 13 10 6 5 11 20 29 38 45 50 52 55 56 59 67 79 89 98 106 112 114 113 111 108 104 99 93 88 83 79 75
65 66 68 69 67 58 47 37 30 25 20 16 12 9 6 5 9 16 23 31 38 44 47 50 53 55 62 72 83 91 100 108 113 113 111 109 106 101 95 90 85 80 75
65 66 67 68 68 60 49 39 32 26 21 16 12 9 7 6 9 13 18 25 31 38 42 45 50 52 57 66 76 85 94 103 110 112 112 110 107 103 98 92 86 82 77
64 65 66 67 68 63 53 43 35 28 22 17 13 10 8 8 9 12 15 20 26 32 37 41 46 49 53 61 70 79 88 98 106 111 111 110 108 105 100 95 89 84 80
63 63 65 66 67 65 57 47 39 31 24 18 13 10 8 7 8 10 13 17 21 26 32 37 42 46 50 58 66 75 83 93 102 108 110 110 108 106 103 99 93 87 80
62 63 64 65 66 66 61 52 42 34 26 19 14 9 7 7 7 9 11 14 18 22 28 33 37 42 48 55 63 71 79 88 97 104 108 109 108 106 104 101 95 90 84
61 62 63 63 65 65 62 55 46 37 28 21 15 10 5 5 6 8 10 12 15 19 24 29 34 40 46 53 60 67 75 83 91 101 105 107 107 106 104 102 98 93 85
60 60 61 62 63 63 62 57 49 40 31 23 16 10 4 3 4 6 9 11 14 17 21 26 31 38 44 51 58 64 72 79 87 96 102 105 105 103 102 100 99 94 88
60 59 59 60 61 62 62 58 51 43 33 25 18 12 6 1 3 5 7 10 13 16 19 24 29 36 43 49 56 62 68 74 82 90 96 100 101 99 99 97 96 92 87
59 58 58 59 59 60 61 58 53 45 37 28 20 13 8 5 4 5 7 9 11 14 18 23 28 35 42 49 54 59 64 70 77 85 91 94 95 93 93 93 90 88 86
58 58 58 57 57 58 58 58 54 47 39 30 22 15 10 7 6 7 7 9 10 12 17 22 27 34 41 48 52 56 60 66 73 80 87 89 89 88 86 86 85 84 82
Wind_Direction
305 304 302 300 298 295 292 289 286 282 279 275 271 267 263 259 255 250 246 242 239 237 235 233 232 230 229 229 228 228 229 228 226 223 222 220 219 218 218 219 219 218 219
306 304 303 301 298 296 293 290 286 283 279 275 271 267 263 258 254 250 246 242 238 236 233 231 229 228 226 226 226 226 226 226 225 223 221 220 218 217 217 217 217 217 218
308 307 305 303 301 298 295 292 289 285 280 276 271 266 262 258 253 248 244 240 237 234 232 229 227 225 224 223 223 223 223 224 224 222 221 219 218 217 217 216 216 216 216
311 310 308 307 304 302 299 295 291 285 280 275 269 264 260 256 252 248 243 239 235 232 230 228 225 223 222 221 221 221 221 221 221 221 220 219 218 217 216 216 215 215 215
314 313 312 310 309 306 302 297 292 286 280 274 268 262 257 253 249 246 242 238 234 231 228 226 224 222 220 219 219 219 219 219 219 219 219 218 217 217 216 215 215 214 214
317 316 316 314 312 309 305 300 294 287 281 274 266 260 254 250 246 244 241 238 234 230 227 224 222 220 219 218 217 217 217 217 217 217 217 216 216 216 217 215 214 214 214
321 320 319 318 315 313 309 304 297 290 282 274 266 258 250 246 242 240 239 237 234 230 226 223 220 218 217 216 216 215 215 215 215 215 215 215 215 216 216 216 215 214 214
324 324 323 322 320 318 315 310 305 298 289 278 267 256 247 241 239 237 236 235 234 231 227 223 219 217 215 214 214 214 214 213 213 213 213 213 213 214 216 216 216 214 213
327 327 327 326 325 325 322 319 315 309 299 286 272 258 245 237 235 234 233 233 233 232 229 224 220 216 214 213 213 213 213 212 212 211 211 212 212 213 214 215 216 215 214
331 331 331 330 331 330 328 327 325 321 313 300 280 261 247 236 231 229 231 231 231 231 230 226 221 217 214 212 211 211 211 211 210 210 210 210 210 211 213 214 216 216 215
334 335 335 335 335 334 333 333 334 333 329 319 298 269 248 235 228 226 227 229 229 230 230 228 223 218 214 212 210 210 210 210 209 208 208 208 209 209 211 213 215 216 217
338 338 339 339 339 338 337 338 340 343 344 339 325 288 252 234 226 223 223 225 227 228 229 228 225 220 216 213 211 209 209 209 208 207 207 207 207 208 210 212 213 215 217
341 342 343 343 343 341 339 340 344 349 353 354 350 327 264 234 224 221 220 221 224 227 228 227 225 221 217 214 212 209 207 207 207 206 206 206 206 207 208 210 212 214 216
344 345 347 347 346 344 341 341 344 349 355 360 1 354 305 239 224 220 219 219 220 224 227 228 225 222 218 214 212 209 207 206 206 205 205 205 205 206 207 209 212 213 215
347 348 350 351 350 347 343 341 341 345 351 355 359 359 340 254 226 220 218 218 219 221 225 227 226 222 218 214 212 210 207 205 205 204 205 205 205 205 206 208 210 213 215
349 351 352 354 353 350 347 342 340 339 341 343 345 346 332 266 229 221 219 219 219 220 223 226 226 222 217 214 211 210 208 205 204 204 204 204 204 204 205 206 209 212 215
352 353 355 356 356 355 351 346 341 335 332 330 326 321 305 264 232 223 219 218 219 219 221 225 226 222 217 213 210 209 207 205 202 202 203 204 204 204 204 205 207 210 212
354 355 357 358 359 359 356 352 346 337 330 323 313 300 281 251 227 221 218 218 219 219 221 224 225 222 216 211 209 207 206 205 202 201 202 203 203 204 203 204 206 208 210
356 357 359 360 1 1 0 357 352 345 336 326 312 292 270 247 228 219 217 216 217 218 220 222 223 220 214 209 206 205 205 204 202 201 201 202 203 204 203 204 205 207 209
357 359 0 1 3 3 3 2 358 352 344 336 324 298 268 245 229 219 215 214 215 216 218 220 220 217 210 205 203 203 203 203 202 200 201 202 203 204 204 204 205 206 207
359 0 2 3 4 5 5 5 3 359 353 346 338 320 274 241 227 217 212 211 211 213 215 215 215 211 205 201 199 200 201 202 202 201 200 201 203 204 205 204 205 206 208
0 1 3 4 6 7 7 6 5 4 0 355 349 338 296 242 227 211 205 203 205 207 208 209 208 204 200 196 196 197 198 200 201 200 200 201 203 205 206 206 206 207 208
1 2 3 5 7 8 9 8 7 7 6 3 0 355 338 247 218 203 198 196 197 198 200 201 201 198 194 192 192 194 196 199 200 200 200 201 203 205 207 208 209 210 211
2 3 4 5 7 9 10 10 9 10 10 9 9 10 13 22 179 179 182 183 185 188 192 194 194 191 189 188 189 191 194 197 199 199 200 201 203 205 208 209 210 211 213
2 4 5 6 8 9 11 11 12 13 13 13 16 22 35 65 115 142 156 164 172 180 186 187 187 186 184 184 186 188 192 195 197 198 199 200 202 205 208 210 211 212 214
2 4 6 7 8 9 11 13 14 15 15 16 20 28 42 64 94 119 135 148 159 173 180 182 183 182 181 182 183 185 189 193 196 198 198 198 200 203 206 210 212 212 213
Height
5649 5634 5619 5606 5593 5583 5573 5565 5558 5553 5549 5547 5546 5547 5551 5557 5565 5574 5587 5600 5613 5626 5639 5652 5666 5679 5692 5703 5714 5725 5735 5745 5755 5765 5774 5782 5789 5796 5803 5810 5816 5823 5830
5624 5608 5593 5579 5567 5555 5545 5536 5528 5522 5518 5515 5514 5514 5517 5521 5529 5537 5549 5563 5577 5592 5608 5623 5638 5652 5667 5681 5694 5706 5717 5729 5740 5751 5761 5770 5778 5786 5793 5800 5807 5814 5822
5599 5583 5568 5554 5541 5529 5518 5508 5499 5493 5488 5485 5484 5484 5485 5489 5496 5503 5513 5526 5541 5557 5574 5591 5607 5624 5641 5657 5672 5686 5699 5711 5724 5736 5747 5757 5766 5774 5782 5790 5798 5806 5813
5576 5560 5545 5531 5517 5504 5492 5481 5472 5465 5460 5457 5456 5456 5457 5461 5466 5472 5481 5493 5507 5522 5539 5557 5576 5596 5614 5632 5649 5665 5679 5693 5706 5720 5732 5743 5753 5762 5771 5780 5788 5796 5804
5555 5539 5524 5509 5494 5480 5467 5456 5446 5439 5434 5431 5429 5430 5432 5436 5440 5445 5453 5463 5475 5489 5505 5524 5545 5567 5587 5606 5624 5642 5659 5674 5689 5703 5716 5729 5740 5749 5759 5768 5777 5786 5794
5536 5520 5505 5489 5473 5459 5445 5431 5420 5411 5404 5401 5402 5404 5408 5413 5417 5421 5428 5436 5446 5459 5474 5492 5514 5536 5557 5578 5598 5618 5637 5654 5670 5685 5700 5714 5726 5737 5746 5756 5766 5776 5785
5519 5503 5486 5470 5454 5438 5421 5404 5390 5379 5372 5367 5369 5374 5382 5389 5394 5398 5406 5414 5422 5432 5447 5464 5483 5505 5528 5550 5573 5594 5614 5633 5651 5667 5683 5698 5711 5723 5734 5744 5754 5765 5774
5503 5486 5469 5452 5434 5416 5397 5377 5361 5349 5340 5333 5333 5340 5351 5363 5366 5377 5386 5393 5401 5410 5423 5438 5456 5476 5499 5522 5547 5569 5591 5612 5631 5648 5665 5681 5696 5709 5721 5732 5743 5753 5763
5488 5471 5453 5435 5415 5394 5374 5357 5340 5325 5314 5308 5303 5306 5318 5331 5342 5357 5364 5373 5382 5392 5402 5415 5431 5450 5472 5496 5521 5544 5567 5589 5610 5629 5647 5664 5680 5695 5708 5720 5731 5742 5752
5475 5457 5439 5420 5399 5377 5358 5341 5324 5308 5295 5286 5281 5281 5289 5302 5318 5334 5344 5355 5365 5375 5385 5395 5409 5427 5447 5470 5495 5520 5543 5566 5589 5610 5629 5647 5664 5680 5695 5708 5719 5730 5741
5464 5445 5427 5407 5385 5365 5347 5330 5314 5299 5284 5273 5267 5266 5270 5281 5296 5313 5326 5337 5349 5359 5369 5379 5391 5407 5425 5446 5470 5494 5519 5544 5568 5590 5611 5630 5649 5665 5681 5695 5707 5719 5730
5455 5436 5417 5396 5375 5356 5339 5324 5309 5295 5281 5270 5263 5259 5262 5269 5279 5294 5309 5321 5333 5345 5355 5365 5376 5389 5405 5425 5447 5472 5498 5524 5549 5572 5594 5615 5633 5650 5666 5682 5695 5707 5719
5448 5429 5410 5389 5368 5349 5333 5320 5307 5295 5283 5273 5265 5261 5261 5264 5271 5282 5296 5308 5320 5331 5342 5352 5361 5373 5388 5406 5428 5452 5479 5505 5530 5554 5577 5599 5618 5636 5653 5668 5682 5695 5707
5440 5422 5402 5382 5362 5344 5329 5317 5306 5295 5286 5278 5271 5266 5264 5265 5269 5276 5286 5297 5309 5320 5329 5339 5349 5359 5372 5390 5411 5435 5460 5486 5512 5537 5561 5583 5604 5622 5639 5655 5669 5682 5696
5434 5415 5396 5377 5358 5340 5326 5314 5304 5296 5288 5281 5275 5271 5268 5268 5269 5273 5280 5289 5300 5310 5319 5327 5337 5347 5360 5377 5397 5419 5443 5469 5495 5521 5546 5568 5589 5608 5626 5643 5658 5671 5684
5428 5411 5393 5374 5355 5337 5323 5311 5302 5295 5288 5282 5277 5273 5270 5269 5270 5272 5277 5284 5292 5301 5310 5317 5326 5337 5350 5366 5385 5406 5429 5455 5481 5507 5531 5554 5575 5595 5613 5630 5646 5660 5673
5425 5408 5390 5372 5354 5336 5321 5309 5300 5292 5286 5281 5276 5273 5270 5269 5270 5272 5275 5280 5286 5294 5302 5309 5318 5329 5341 5356 5374 5395 5417 5441 5466 5492 5516 5539 5561 5581 5600 5618 5634 5649 5662
5422 5405 5388 5370 5352 5335 5320 5308 5298 5290 5284 5279 5275 5271 5269 5268 5268 5270 5273 5277 5282 5289 5297 5303 5311 5322 5334 5348 5365 5385 5406 5429 5454 5478 5502 5525 5547 5568 5587 5605 5621 5637 5650
5421 5404 5387 5370 5353 5335 5320 5307 5296 5288 5281 5276 5272 5270 5268 5267 5268 5269 5271 5275 5279 5285 5291 5298 5305 5315 5327 5341 5358 5377 5397 5419 5442 5466 5490 5513 5534 5555 5574 5592 5609 5625 5639
5420 5404 5387 5371 5353 5336 5320 5307 5296 5287 5280 5274 5271 5268 5267 5266 5267 5268 5270 5273 5277 5281 5287 5293 5300 5310 5322 5335 5351 5369 5389 5409 5432 5455 5478 5501 5522 5542 5562 5580 5598 5614 5628
5420 5404 5388 5372 5355 5338 5322 5308 5297 5287 5279 5274 5270 5267 5266 5266 5266 5267 5269 5272 5275 5279 5284 5289 5296 5305 5317 5330 5346 5362 5382 5402 5424 5445 5468 5490 5511 5532 5550 5568 5584 5601 5616
5420 5405 5389 5374 5358 5342 5326 5311 5299 5289 5281 5274 5270 5267 5266 5266 5266 5267 5269 5271 5274 5277 5281 5287 5293 5302 5314 5327 5342 5359 5377 5395 5416 5437 5459 5481 5501 5520 5539 5557 5574 5590 5605
5422 5407 5391 5377 5362 5346 5331 5316 5302 5292 5283 5276 5271 5268 5266 5266 5266 5268 5269 5271 5273 5277 5281 5285 5292 5301 5312 5325 5340 5355 5372 5390 5410 5430 5452 5473 5493 5512 5530 5547 5564 5580 5595
5424 5409 5394 5380 5365 5350 5336 5321 5307 5296 5286 5279 5274 5270 5268 5267 5268 5269 5270 5272 5275 5278 5281 5286 5292 5301 5312 5324 5338 5353 5369 5387 5406 5426 5446 5467 5486 5504 5521 5538 5555 5571 5586
5425 5411 5397 5383 5369 5355 5341 5327 5313 5301 5291 5284 5278 5274 5272 5271 5271 5271 5273 5275 5277 5280 5283 5287 5293 5301 5312 5324 5337 5352 5367 5383 5401 5420 5439 5460 5479 5496 5513 5529 5546 5563 5578
5426 5412 5399 5386 5373 5360 5347 5333 5319 5307 5297 5289 5283 5279 5277 5275 5275 5276 5277 5279 5281 5283 5286 5290 5296 5303 5313 5324 5337 5351 5365 5381 5397 5414 5432 5453 5472 5489 5506 5521 5537 5554 5569